Terug naar catalogus

SL-16 DEB

ActiefLEO
NORAD 22342·DEBRIS·🇷🇺 Russia

Gelanceerd Dec 25, 1992 vanaf Baikonur Cosmodrome

Loading…

Volgende Passages (komende 24 uur)

TLE

VersSource: Space-Track

Epoch: Sep 14, 2026, 07:10 UTC

1 22342U 92093AF  26257.29884360  .00000150  00000-0  13917-3 0  9998
2 22342  70.6988 199.8098 0119416 320.8667 191.5840 13.94869546710473

Volg SL-16 DEB in realtime met AllMySat

Download on the App Store